Location: Baller�as
(41.9020°N, 0.1554°W)
Time: 11:39:59
(UTC+00:00)

SPOT 1/Viking Rocket - Pass Details

Date: 10 August 2020
Orbit: 776 x 795 km, 98.5° (Epoch: 21 September)

Event Time Altitude Azimuth Distance (km) Brightness Sun altitude
Exits shadow 21:18:20 42° 161° (SSE) 1,116 3.9 -21.1°
Maximum altitude 21:20:10 86° 76° (ENE) 802 3.5 -21.3°
Drops below altitude 10° 21:25:25 10° 348° (NNW) 2,373 6.9 -22.0°
Sets 21:27:46 0° 348° (NNW) 3,307 7.8 -22.2°
